[TLELIST] Archives

 

[TLELIST] Current TLEs

October 29th 2023 PDT

HST 1 20580U 90037B 23301.90449987 .00006646 00000-0 34039-3 0 9997 2 20580 28.4680 97.4608 0002968 35.8704 97.4773 15.14608481641748 ISS (ZARYA) 1 25544U 98067A 23302.38598730 .00026134 00000-0 46755-3 0 9999 2 25544 51.6433 23.8192 0000578 62.3995 58.1939 15.49806251422603 CXO 1 25867U 99040B 23302.81164719 .00000747 00000-0 00000-0 0 9995 2 25867 37.5137 179.6876 9042870 276.4188 0.2473 0.37812427 13695 ...Continue Reading

[TLELIST] Current TLEs

October 28th 2023 PDT

HST 1 20580U 90037B 23300.85223891 .00005882 00000-0 30027-3 0 9998 2 20580 28.4681 104.4774 0002907 25.1041 119.2974 15.14594696641581 ISS (ZARYA) 1 25544U 98067A 23301.35186652 -.00161823 00000-0 -29199-2 0 9990 2 25544 51.6407 28.9449 0001051 56.8139 50.3788 15.49678525422449 CXO 1 25867U 99040B 23302.81164719 .00000747 00000-0 00000-0 0 9995 2 25867 37.5137 179.6876 9042870 276.4188 0.2473 0.37812427 13695 ...Continue Reading

[TLELIST] Current TLEs

October 28th 2023 PDT

HST 1 20580U 90037B 23300.85223891 .00005882 00000-0 30027-3 0 9998 2 20580 28.4681 104.4774 0002907 25.1041 119.2974 15.14594696641581 ISS (ZARYA) 1 25544U 98067A 23301.35186652 -.00161823 00000-0 -29199-2 0 9990 2 25544 51.6407 28.9449 0001051 56.8139 50.3788 15.49678525422449 CXO 1 25867U 99040B 23302.81164719 .00000747 00000-0 00000-0 0 9995 2 25867 37.5137 179.6876 9042870 276.4188 0.2473 0.37812427 13695 ...Continue Reading

[TLELIST] Current TLEs

October 27th 2023 PDT

HST 1 20580U 90037B 23300.19726632 .00006055 00000-0 30945-3 0 9998 2 20580 28.4679 108.8445 0002875 18.1297 147.9057 15.14588238641754 ISS (ZARYA) 1 25544U 98067A 23300.38648537 .00013263 00000-0 24257-3 0 9990 2 25544 51.6409 33.7238 0000691 101.2259 16.5521 15.49691000422293 CXO 1 25867U 99040B 23300.16782697 .00000861 00000-0 00000-0 0 9999 2 25867 37.4901 180.1207 9040477 276.0599 0.3478 0.37812255 13674 ...Continue Reading

[TLELIST] Current TLEs

October 27th 2023 PDT

HST 1 20580U 90037B 23300.19726632 .00006055 00000-0 30945-3 0 9998 2 20580 28.4679 108.8445 0002875 18.1297 147.9057 15.14588238641754 ISS (ZARYA) 1 25544U 98067A 23300.38648537 .00013263 00000-0 24257-3 0 9990 2 25544 51.6409 33.7238 0000691 101.2259 16.5521 15.49691000422293 CXO 1 25867U 99040B 23300.16782697 .00000861 00000-0 00000-0 0 9999 2 25867 37.4901 180.1207 9040477 276.0599 0.3478 0.37812255 13674 ...Continue Reading

[TLELIST] Current TLEs

October 27th 2023 PDT

HST 1 20580U 90037B 23300.19726632 .00006055 00000-0 30945-3 0 9998 2 20580 28.4679 108.8445 0002875 18.1297 147.9057 15.14588238641754 ISS (ZARYA) 1 25544U 98067A 23300.38648537 .00013263 00000-0 24257-3 0 9990 2 25544 51.6409 33.7238 0000691 101.2259 16.5521 15.49691000422293 CXO 1 25867U 99040B 23300.16782697 .00000861 00000-0 00000-0 0 9999 2 25867 37.4901 180.1207 9040477 276.0599 0.3478 0.37812255 13674 ...Continue Reading

[TLELIST] Current TLEs

October 26th 2023 PDT

HST 1 20580U 90037B 23298.52551964 .00004352 00000-0 21973-3 0 9994 2 20580 28.4677 119.9916 0002746 0.5189 32.1997 15.14569115641234 ISS (ZARYA) 1 25544U 98067A 23299.14014769 .00016046 00000-0 29195-3 0 9993 2 25544 51.6418 39.8968 0000577 78.6429 281.4624 15.49666121422102 CXO 1 25867U 99040B 23300.16782697 .00000861 00000-0 00000-0 0 9999 2 25867 37.4901 180.1207 9040477 276.0599 0.3478 0.37812255 13674 ...Continue Reading

[TLELIST] Current TLEs

October 25th 2023 PDT

HST 1 20580U 90037B 23297.60549738 .00004351 00000-0 21974-3 0 9998 2 20580 28.4676 126.1260 0002689 351.0144 55.3528 15.14561467641099 ISS (ZARYA) 1 25544U 98067A 23297.54734152 .00014482 00000-0 26480-3 0 9996 2 25544 51.6428 47.7812 0000612 112.0677 356.3742 15.49613668421859 CXO 1 25867U 99040B 23300.16738880 .00000861 00000-0 00000-0 0 9994 2 25867 37.4902 180.1210 9040459 276.0597 0.2876 0.37813152 13675 ...Continue Reading

[TLELIST] Current TLEs

October 25th 2023 PDT

HST 1 20580U 90037B 23297.60549738 .00004351 00000-0 21974-3 0 9998 2 20580 28.4676 126.1260 0002689 351.0144 55.3528 15.14561467641099 ISS (ZARYA) 1 25544U 98067A 23297.54734152 .00014482 00000-0 26480-3 0 9996 2 25544 51.6428 47.7812 0000612 112.0677 356.3742 15.49613668421859 CXO 1 25867U 99040B 23300.16738880 .00000861 00000-0 00000-0 0 9994 2 25867 37.4902 180.1210 9040459 276.0597 0.2876 0.37813152 13675 ...Continue Reading

[TLELIST] Current TLEs

October 24th 2023 PDT

HST 1 20580U 90037B 23296.87705076 .00004799 00000-0 24345-3 0 9996 2 20580 28.4676 130.9827 0002626 343.0864 43.5819 15.14555761640981 ISS (ZARYA) 1 25544U 98067A 23297.41259263 .00015220 00000-0 27790-3 0 9993 2 25544 51.6413 48.4494 0000518 106.0704 330.1650 15.49610500421834 CXO 1 25867U 99040B 23300.16738880 .00000861 00000-0 00000+0 0 9993 2 25867 37.4902 180.1210 9040459 276.0597 0.2876 0.37813152 24835 ...Continue Reading
  • This mailing list is a public mailing list - anyone may join or leave, at any time.
  • This mailing list is announce-only.

International Space Station (ISS) / Hubble Space Telescope (HST) / Chandra X-Ray Observatory Orbital Data via EMAIL

Privacy Policy:

Private list